Location: Catstown
(52.4386°N, 7.2633°W)
Time: 16:36:29
(UTC+00:00)

Meteor 1-24 Rocket - Pass Details

Date: 18 September 2020
Orbit: 790 x 927 km, 81.2° (Epoch: 31 October)

Event Time Altitude Azimuth Distance (km) Brightness Sun altitude
Rises 20:46:36 0° 347° (NNW) 3,339 7.5 -19.7°
Reaches altitude 10° 20:48:59 10° 350° (N) 2,418 6.6 -20.1°
Maximum altitude 20:54:27 71° 75° (ENE) 884 3.6 -20.8°
Enters shadow 20:56:30 40° 148° (SSE) 1,230 4.1 -21.0°
